Retour au catalogue

STARLINK-33548

ActifCommunicationsVLEO
NORAD 62280·PAYLOAD·🇺🇸 United States

Lancé Dec 8, 2024 depuis Cape Canaveral Space Force Station

Loading…

Prochains Passages (prochaines 24 heures)

TLE

FraisSource: CelesTrak SupGP

Époque: Sep 14, 2026, 20:50 UTC

1 62280C 24237P   26257.86854167  .00033630  00000+0  12173-2 0  2570
2 62280  43.0010 217.1224 0001584 258.1633 326.1557 15.27581423    11

Suivez STARLINK-33548 en temps réel avec AllMySat

Download on the App Store